Weather History for Crestview, FL

Change the Weather History Date:

Monday, November 26, 2012

  Actual Average Record
Temperature  
Mean Temperature 48 °F -  
Max Temperature 66 °F 67 °F 79 °F (1989)
Min Temperature 30 °F 41 °F 23 °F (1950)
Degree Days  
Heating Degree Days 17    
Moisture  
Dew Point 42 °F    
Average Humidity 75    
Maximum Humidity 92    
Minimum Humidity 47    
Precipitation  
Precipitation 0.00 in - - ()
Sea Level Pressure  
Sea Level Pressure 30.19 in    
Wind  
Wind Speed 1 mph (ESE)    
Max Wind Speed 7 mph    
Max Gust Speed -    
Visibility 10 miles    
Events      
Averages and records for this station are not official NWS values.
T = Trace of Precipitation, MM = Missing Value Source: NWS Daily Summary

Daily Weather History Graph

Daily Weather History Graph

Search for Another Location

Airport:

Trip Planner

Search our weather history database for the weather conditions in past years. The results will help you decide how hot, cold, wet, or windy it might be!

Date:

Astronomy

Nov. 26, 2012 Rise Set
Actual Time 6:22 AM CST 4:44 PM CST
Civil Twilight 5:56 AM CST 5:10 PM CST
Nautical Twilight 5:26 AM CST 5:40 PM CST
Astronomical Twilight 4:57 AM CST 6:09 PM CST
Moon 3:33 PM CST (11/26) 4:36 AM CST (11/26)
Length of Visible Light 11h 14m
Length of Day
10h 22m
Waxing Gibbous, 97% of the Moon is Illuminated
Nov 26
Waxing Gibbous
Nov 28
Full
Dec 6
Last Quarter
Dec 13
New
Dec 19
First Quarter

Hourly Weather History & Observations

Time (CST) Temp. Dew Point Humidity Pressure Visibility Wind Dir Wind Speed Gust Speed Precip Events Conditions
12:53 AM 30.9 °F 28.0 °F 89% 30.16 in 10.0 mi Calm Calm - N/A   Clear
1:53 AM 30.9 °F 28.0 °F 89% 30.16 in 10.0 mi Calm Calm - N/A   Clear
2:53 AM 30.0 °F 28.0 °F 92% 30.17 in 10.0 mi Calm Calm - N/A   Clear
3:53 AM 30.0 °F 28.0 °F 92% 30.17 in 10.0 mi Calm Calm - N/A   Clear
4:53 AM 30.0 °F 28.0 °F 92% 30.18 in 8.0 mi Calm Calm - N/A   Clear
5:53 AM 30.0 °F 27.0 °F 88% 30.20 in 10.0 mi Calm Calm - N/A   Clear
6:53 AM 34.0 °F 30.9 °F 89% 30.22 in 10.0 mi Calm Calm - N/A   Clear
7:53 AM 41.0 °F 36.0 °F 82% 30.24 in 10.0 mi Calm Calm - N/A   Clear
8:53 AM 52.0 °F 39.0 °F 61% 30.25 in 10.0 mi ENE 3.5 mph - N/A   Clear
9:53 AM 61.0 °F 42.1 °F 50% 30.24 in 10.0 mi ENE 3.5 mph - N/A   Clear
10:53 AM 64.9 °F 44.1 °F 47% 30.22 in 10.0 mi Variable 4.6 mph - N/A   Clear
11:53 AM 66.0 °F 46.0 °F 48% 30.20 in 10.0 mi SE 6.9 mph - N/A   Clear
12:53 PM 64.9 °F 46.0 °F 50% 30.19 in 10.0 mi SSE 3.5 mph - N/A   Clear
1:53 PM 64.9 °F 46.9 °F 52% 30.18 in 10.0 mi Calm Calm - N/A   Clear
2:53 PM 66.0 °F 48.0 °F 52% 30.17 in 10.0 mi Calm Calm - N/A   Clear
3:53 PM 64.0 °F 52.0 °F 65% 30.17 in 5.0 mi Calm Calm - N/A   Haze
4:53 PM 61.0 °F 51.1 °F 70% 30.17 in 10.0 mi Calm Calm - N/A   Mostly Cloudy
5:53 PM 57.9 °F 51.1 °F 78% 30.17 in 10.0 mi Calm Calm - N/A   Overcast
6:53 PM 55.9 °F 50.0 °F 80% 30.18 in 10.0 mi Calm Calm - N/A   Mostly Cloudy
7:53 PM 55.0 °F 51.1 °F 86% 30.20 in 10.0 mi Calm Calm - N/A   Partly Cloudy
8:53 PM 55.0 °F 51.1 °F 86% 30.19 in 10.0 mi Calm Calm - N/A   Mostly Cloudy
9:53 PM 52.0 °F 48.9 °F 89% 30.18 in 10.0 mi Calm Calm - N/A   Scattered Clouds
10:53 PM 53.1 °F 50.0 °F 89% 30.17 in 10.0 mi Calm Calm - N/A   Mostly Cloudy
11:53 PM 55.0 °F 51.1 °F 86% 30.16 in 10.0 mi Calm Calm - N/A   Overcast